Overview Statistics Trail Chart Weather Telemetry Raw packets
 

This is the latest recevied weather packets stored in our database for station/object KB4MOX. If no packets are shown the sender has not sent any weather packets the latest 10 day(s).

<< 48 49 50 51 52 53 54 >>
Time Temp. Humidity Pressure Rain* Wind** Luminosity Snow
1788292465 35° C 45% 1017.9 hPa 0 mm - 122 W/m² -
1788292160 36.11° C 44% 1018.1 hPa 0 mm - 610 W/m² -
1788291854 36.11° C 43% 1017.8 hPa 0 mm - 651 W/m² -
1788291551 35.56° C 42% 1017.8 hPa 0 mm - 684 W/m² -
1788291250 35° C 46% 1018.2 hPa 0 mm - 697 W/m² -
1788290950 35° C 44% 1018.3 hPa 0 mm - 98 W/m² -
1788290646 35° C 44% 1018.5 hPa 0 mm - 692 W/m² -
1788290342 35.56° C 43% 1018.4 hPa 0 mm - 711 W/m² -
1788290036 36.11° C 42% 1018.4 hPa 0 mm - 696 W/m² -
1788289733 35.56° C 42% 1018.3 hPa 0 mm - 699 W/m² -
1788289427 35° C 44% 1018.5 hPa 0 mm - 717 W/m² -
1788289125 35.56° C 46% 1018.5 hPa 0 mm - 719 W/m² -
1788288824 35.56° C 44% 1018.4 hPa 0 mm - 730 W/m² -
1788288519 35.56° C 44% 1018.4 hPa 0 mm - 738 W/m² -
1788288215 35° C 44% 1018.8 hPa 0 mm - 733 W/m² -
1788287910 35.56° C 43% 1018.7 hPa 0 mm - 741 W/m² -
1788287610 35° C 43% 1018.8 hPa 0 mm - 742 W/m² -
1788287306 35.56° C 42% 1018.9 hPa 0 mm - 760 W/m² -
1788287005 35° C 43% 1019 hPa 0 mm - 774 W/m² -
1788286701 34.44° C 47% 1019 hPa 0 mm - 770 W/m² -
1788286396 35° C 46% 1019.1 hPa 0 mm - 178 W/m² -
1788286095 33.89° C 46% 1019 hPa 0 mm - 784 W/m² -
1788285794 33.33° C 49% 1019.2 hPa 0 mm - 786 W/m² -
1788285493 33.33° C 47% 1019.2 hPa 0 mm - 116 W/m² -
1788285188 33.33° C 49% 1019.3 hPa 0 mm - 663 W/m² -

* Rain latest hour (hover to see other rain measurements)
** Current wind speed in m/s (hover to see current wind gust speed)